World > North America > United States > Oregon > Wasco

Hourly Wasco, OR Regional Weather

Feedback E-mail the Weather

Quick WX

Wasco, OR Weather Maps

°F °C°F °C
Wasco Weather Map
UTC Time: 8/8/2022, 06:39
Your Time:

Wasco, OR Regional Weather

Expires:202208080700;;659027
ASUS46 KPQR 080610
RWROR 

OREGON REGIONAL WEATHER ROUNDUP
NATIONAL WEATHER SERVICE PORTLAND OR
1100 PM PDT SUN AUG 07 2022

NOTE: "FAIR" INDICATES FEW OR NO CLOUDS BELOW 12,000 FEET WITH
NO SIGNIFICANT WEATHER AND/OR OBSTRUCTIONS TO VISIBILITY.


ORZ029>031-041-044-049-050-061>064-502-503-505>511-080700-
EASTERN OREGON

  
CITY           SKY/WX    TMP DP  RH WIND       PRES   REMARKS
MADRAS         CLEAR     68  34  28 N7        30.06S                  
REDMOND        PTCLDY    79  36  21 NW7       30.07R                  
6HR MIN TEMP:  79; 6HR MAX TEMP:  97;                                

BEND           CLEAR     77  32  19 W6        30.12R                  
PRINEVILLE     CLOUDY    72  28  20 CALM      30.08S                  
KLAMATH FALLS  CLEAR     64  43  46 CALM      30.11S                  
6HR MIN TEMP:  62; 6HR MAX TEMP:  94;                                

LAKEVIEW       PTCLDY    65  46  50 NW9       30.17S                  
HERMISTON      CLEAR     70  37  29 S7        29.92S                  
6HR MIN TEMP:  69; 6HR MAX TEMP:  99;                                

PENDLETON      CLEAR     70  36  28 E8        29.98S                  
6HR MIN TEMP:  70; 6HR MAX TEMP:  98;                                

JOHN DAY       CLEAR     75  35  23 E6        30.11S                  
MEACHAM        CLEAR     55  42  61 CALM      30.13F                  
6HR MIN TEMP:  55; 6HR MAX TEMP:  87;                                

LA GRANDE      CLEAR     65  41  41 W3        30.07S                  
6HR MIN TEMP:  64; 6HR MAX TEMP:  92;                                

BAKER CITY     CLEAR     58  43  57 CALM      30.11S                  
6HR MIN TEMP:  58; 6HR MAX TEMP:  91;                                

BURNS          CLEAR     73  33  23 NE9       30.13R                  
6HR MIN TEMP:  73; 6HR MAX TEMP:  95;                                

ROME             N/A     76  42  29 S3        30.10R                  
6HR MIN TEMP:  76; 6HR MAX TEMP:  96;                                

ONTARIO        CLEAR     69  48  47 NW5       30.03R                  
6HR MIN TEMP:  69; 6HR MAX TEMP:  96;                                

$$


OTHER REGIONAL REPORTS
  
CITY           SKY/WX    TMP DP  RH WIND       PRES   REMARKS
SEATTLE        PTCLDY    75  54  47 N9        29.97S                  
6HR MIN TEMP:  71; 6HR MAX TEMP:  89;                                

SPOKANE        CLEAR     75  37  25 S7        30.03S                  
6HR MIN TEMP:  75; 6HR MAX TEMP:  91;                                

VANCOUVER BC   CLEAR     68  64  88 NW12      29.94F                  
PRINCE GEORGE  CLEAR     64  46  52 W6        30.00R                  
DAWSON CREEK   CLEAR     63  46  55 W8        29.84S                  
WHITEHORSE     MOCLDY    55  37  50 S6        29.98R                  
BOISE          CLEAR     75  34  22 SE7       30.05F                  
6HR MIN TEMP:  75; 6HR MAX TEMP:  95;                                

REDDING        CLEAR     85  54  34 SW8       29.90R                  
6HR MIN TEMP:  83; 6HR MAX TEMP: 101;                                

SAN FRANCISCO  PTCLDY    64  56  75 W14       30.02S                  
6HR MIN TEMP:  64; 6HR MAX TEMP:  71;                                


$$

  

SKY/WX - Weather  TMP - Temperature  DP - Dew Point  RH - Humidity
WIND - Wind Direction/Speed PRES - Barometric Pressure VSB - Visibility
WCI - Wind Chill Index E13G22 Wind - East Wind 13 mph/Gusts of 22 mph

Trending Headlines

Wasco Radar Loop



Wasco Quick Facts


National Two Day Weather Forecast


E-mail the Wasco Weather Forecast

Voice your opinion or tell us about page issues...